EHI
10 9 9 7 3 1 2 1 0 0 0 0 0 0 0 0 1 3 7 8 8 8 7 6 4 2 2 1 0 0 0 0 0 0 0 0 0 0 0 0 0 0 0
11 10 8 5 2 1 2 2 1 0 0 0 0 0 0 0 2 6 10 10 9 8 7 5 3 1 1 0 0 0 0 0 0 0 0 0 0 0 0 0 0 0 0
11 9 6 4 2 2 2 3 2 1 0 0 0 0 1 1 4 7 9 9 7 5 4 3 3 2 1 1 0 0 0 0 0 0 0 0 0 0 0 0 0 0 0
8 7 4 3 3 2 2 3 3 2 1 0 0 0 1 2 3 6 6 4 3 2 1 2 3 4 3 1 0 0 0 0 0 0 0 0 0 0 0 0 0 0 0
5 4 3 3 3 3 2 3 3 3 2 1 0 0 1 1 1 2 2 1 2 2 1 1 3 5 4 1 0 0 0 0 0 0 0 0 0 0 0 0 0 0 0
3 2 2 3 3 3 2 2 3 3 3 2 1 0 0 0 0 0 0 0 1 2 1 1 2 3 3 1 0 0 0 0 0 0 0 0 0 0 0 0 0 0 0
2 1 1 3 4 3 1 1 2 3 3 3 2 0 0 0 0 0 0 0 1 1 0 0 1 1 1 0 0 0 0 0 0 0 0 0 0 0 0 0 0 0 0
2 1 1 2 3 2 1 0 1 2 2 2 1 0 0 0 0 0 0 0 0 0 0 0 0 0 0 0 0 0 0 0 0 0 0 0 0 0 0 0 0 0 0
1 0 0 1 1 1 0 1 1 1 1 1 0 0 0 0 0 0 0 0 0 0 0 0 0 0 0 0 0 0 0 0 0 0 0 0 0 0 0 0 0 0 0
0 0 0 0 0 0 0 1 1 0 0 0 0 0 0 0 0 0 0 0 0 0 0 0 0 0 0 0 0 0 0 0 0 0 0 0 0 0 0 0 0 0 0
0 0 0 0 0 0 0 0 0 0 0 0 0 0 0 0 0 0 0 0 0 0 0 0 0 0 0 0 0 0 0 0 0 0 0 0 0 0 0 0 0 0 0
0 0 0 0 0 0 0 0 0 0 0 0 0 0 0 0 0 0 0 0 0 0 0 0 0 0 0 0 0 0 0 0 0 0 0 0 0 0 0 0 0 0 0
0 0 0 0 0 0 0 0 0 0 0 0 0 0 0 0 0 0 0 0 0 0 0 0 0 0 0 0 0 0 0 0 0 0 0 0 0 0 0 0 0 0 0
0 0 0 0 0 0 0 0 0 0 0 0 0 0 0 0 0 0 0 0 0 0 0 0 0 0 0 0 0 0 0 0 0 0 0 0 0 0 0 0 0 0 0
0 0 0 0 0 0 0 0 0 0 0 0 0 0 0 0 0 0 0 0 0 0 0 0 0 0 0 0 0 0 0 0 0 0 0 0 0 0 0 0 0 0 0
0 0 0 0 0 0 0 0 0 0 0 0 0 0 0 0 0 0 0 0 0 0 0 0 0 0 0 0 0 0 0 0 0 0 0 0 0 0 0 0 0 0 0
0 0 0 0 0 0 0 0 0 0 0 0 0 0 0 0 0 0 0 0 0 0 0 0 0 0 0 0 0 0 0 0 0 0 0 0 0 0 0 0 0 0 0
0 0 0 0 0 0 0 0 0 0 0 0 0 0 0 0 0 0 0 0 0 0 0 0 0 0 0 0 0 0 0 0 0 0 0 0 0 0 0 0 0 0 0
0 0 0 0 0 0 0 0 0 0 0 0 0 0 0 0 0 0 0 0 0 0 0 0 0 0 0 0 0 0 0 0 0 0 0 0 0 0 0 0 0 0 0
0 0 0 0 0 0 0 0 0 0 0 0 0 0 0 0 0 0 0 0 0 0 0 0 0 0 0 0 0 0 0 0 0 0 0 0 0 0 0 0 0 0 0
0 0 0 0 0 0 0 0 0 0 0 0 0 0 0 0 0 0 0 0 0 0 0 0 0 0 0 0 0 0 0 0 0 0 0 0 0 0 0 0 0 0 0
0 0 0 0 0 0 0 0 0 0 0 0 0 0 0 0 0 0 0 0 0 0 0 0 0 0 0 0 0 0 0 0 0 0 0 0 0 0 0 0 0 0 0
0 0 0 0 0 0 0 0 0 0 0 0 0 0 0 0 0 0 0 0 0 0 0 0 0 0 0 0 0 0 0 0 0 0 0 0 0 0 0 0 0 0 0
0 0 0 0 0 0 0 0 0 0 0 0 0 0 0 0 0 0 0 0 0 0 0 0 0 0 0 0 0 0 0 0 0 0 0 0 0 0 0 0 0 0 0
0 0 0 0 0 0 0 0 0 0 0 0 0 0 0 0 0 0 0 0 0 0 0 0 0 0 0 0 0 0 0 0 0 0 0 0 0 0 0 0 0 0 0
0 0 0 0 0 0 0 0 0 0 0 0 0 0 0 0 0 0 0 0 0 0 0 0 0 0 0 0 0 0 0 0 0 0 0 0 0 0 0 0 0 0 0
Wind_Speed
4 3 3 2 2 2 2 3 3 3 3 3 3 4 3 3 3 3 2 6 6 7 8 9 10 9 9 9 8 8 7 7 6 6 6 6 5 5 5 5 5 5 4
4 4 3 3 3 3 3 3 3 3 3 3 3 3 3 3 3 3 2 3 6 7 8 9 9 10 10 9 9 9 8 8 7 7 7 7 6 6 6 5 5 5 5
4 3 3 3 3 2 3 2 3 2 2 2 3 3 3 3 3 3 3 2 3 6 8 9 9 10 10 10 10 9 9 8 8 7 7 7 7 7 7 7 6 6 6
3 3 3 3 3 3 3 3 3 3 3 3 3 2 2 3 3 3 3 3 3 3 6 10 10 10 10 11 10 10 9 9 9 9 9 8 8 8 8 7 7 7 7
3 3 3 3 3 3 3 4 3 3 3 4 3 3 2 2 3 3 4 4 4 4 4 8 11 11 11 11 11 10 10 10 9 9 9 9 9 8 8 8 7 7 7
1 2 2 2 2 3 3 3 4 3 3 4 4 3 3 3 3 3 4 4 4 5 5 5 5 8 11 11 11 10 10 10 9 9 9 9 9 9 9 8 8 8 8
1 2 2 2 3 3 4 4 3 5 4 4 4 3 2 3 4 2 3 4 5 5 6 6 5 4 5 10 11 10 9 9 9 9 9 9 9 9 8 8 8 8 8
1 1 2 2 3 3 3 4 4 3 3 4 4 4 3 2 2 2 2 3 5 5 6 6 6 6 5 4 7 10 9 8 8 8 8 8 8 8 8 7 7 7 7
2 1 1 1 1 2 3 4 5 5 5 3 2 4 5 4 2 2 2 3 4 4 5 5 6 6 6 5 4 7 9 8 7 7 8 7 7 7 7 7 7 7 7
3 2 2 1 1 1 2 2 3 3 5 5 2 1 2 4 5 3 1 2 4 4 4 5 5 5 5 4 5 8 9 8 8 7 7 7 7 7 7 7 7 7 6
4 4 3 2 2 1 1 0 1 2 3 4 4 3 2 2 3 4 4 3 3 3 3 4 4 4 4 4 3 6 8 8 7 7 7 7 7 7 7 7 7 6 6
4 6 5 4 3 3 3 1 0 1 2 3 3 3 3 3 3 3 4 5 4 3 3 3 3 3 3 3 4 7 7 7 7 7 6 6 6 6 6 6 6 7 7
4 5 5 4 3 3 3 3 2 2 2 3 3 2 2 2 3 3 5 5 4 3 3 2 2 2 2 2 3 5 5 5 5 5 4 4 5 5 5 5 6 6 7
4 5 5 5 5 4 4 4 3 3 3 4 4 4 3 2 2 3 5 6 5 3 2 2 1 1 2 2 2 3 3 3 3 3 2 2 3 3 3 4 4 4 5
4 6 5 5 6 6 6 5 5 5 5 5 5 5 4 3 3 3 4 5 6 5 3 2 2 2 2 2 2 2 1 1 1 1 1 2 2 2 2 2 2 2 3
6 6 7 7 7 7 7 7 6 6 8 6 5 6 6 4 4 3 4 3 3 5 4 2 2 2 2 3 3 2 1 0 1 1 2 3 3 3 2 2 1 1 2
7 7 7 7 8 8 7 8 7 8 9 7 6 7 7 5 5 4 4 4 3 4 6 3 2 2 3 3 2 2 1 0 1 2 2 3 3 4 3 3 2 1 1
7 7 7 8 8 8 8 8 9 9 9 8 7 7 7 6 7 5 5 5 4 4 6 7 3 3 3 2 2 1 1 1 1 1 1 2 3 3 3 3 3 2 2
8 8 8 9 8 8 8 8 9 9 9 8 7 8 7 7 7 5 6 6 5 5 5 6 4 2 3 2 2 2 2 2 2 2 1 0 1 2 3 3 4 4 3
8 8 8 8 8 8 8 8 8 9 9 8 8 8 7 7 7 6 6 6 6 7 7 6 5 3 3 2 2 2 2 2 2 2 3 2 2 1 2 3 4 5 4
7 7 8 8 8 7 7 7 7 8 8 9 9 8 8 10 10 7 6 6 6 6 6 5 4 3 2 2 1 1 1 1 1 2 2 2 2 1 2 2 4 5 5
7 8 8 8 8 6 9 10 8 7 8 8 8 8 8 10 11 12 11 9 7 6 5 4 3 3 2 1 1 1 1 1 1 1 2 2 1 2 2 2 3 5 5
7 7 7 8 8 8 10 11 10 7 8 7 7 7 7 8 9 8 10 11 10 8 6 4 4 2 2 2 2 1 1 0 1 1 1 2 1 2 2 3 4 4 5
6 5 6 7 7 7 10 10 11 8 8 7 7 6 7 7 7 7 7 8 7 6 4 3 2 2 2 2 2 1 1 1 2 1 1 1 1 2 3 3 4 4 4
5 5 5 6 7 7 9 9 9 6 7 7 6 6 6 6 8 8 7 6 6 5 5 4 2 1 2 3 4 2 1 1 1 1 1 2 1 2 3 3 3 4 4
4 5 6 6 6 6 8 9 7 5 5 5 5 5 7 7 7 7 5 5 5 3 4 3 4 3 2 1 4 3 2 1 1 1 1 2 1 2 3 2 3 3 3
Wind_Direction
185 185 189 186 189 183 180 185 186 183 179 183 190 188 183 182 180 174 188 184 176 176 178 176 172 168 159 149 143 136 132 131 128 124 121 117 113 111 108 104 100 94 90
184 184 188 187 194 194 186 188 190 181 179 175 184 177 166 162 161 154 156 164 162 161 165 163 162 159 152 143 134 128 124 120 116 113 109 104 100 98 97 95 91 86 82
188 189 190 194 198 188 179 181 187 174 176 170 163 152 141 141 140 136 136 135 142 146 146 143 144 146 142 137 130 125 120 115 112 111 107 103 99 95 90 86 82 77 73
200 193 192 199 195 186 188 193 184 177 170 153 138 126 123 125 124 124 124 125 120 122 129 131 131 131 131 131 127 122 116 109 105 104 101 98 96 93 87 82 79 75 70
199 194 202 196 185 199 199 199 185 172 163 149 134 113 104 104 106 115 116 114 113 113 115 124 126 126 126 124 120 116 111 106 102 101 98 94 90 87 84 80 76 73 69
188 200 208 196 192 204 202 190 177 165 157 148 127 105 88 86 90 97 111 109 111 110 109 108 111 119 120 118 115 112 110 106 102 100 96 92 88 84 83 80 76 72 70
178 208 211 192 198 207 206 188 170 160 156 142 124 116 76 69 78 84 100 108 107 106 104 102 99 99 110 109 109 110 110 106 102 98 94 90 88 85 81 78 74 69 65
105 162 159 198 193 193 195 191 171 164 165 168 150 138 141 112 72 71 90 110 109 107 106 103 99 95 93 91 104 103 101 105 105 103 98 92 88 86 82 77 72 69 63
60 57 112 176 176 173 192 195 185 177 175 178 166 153 157 171 138 83 83 104 114 111 110 104 102 99 95 88 88 92 94 90 97 102 100 95 90 86 81 76 71 64 57
50 46 47 71 142 159 177 194 188 195 174 172 163 126 123 141 146 138 100 95 109 108 111 113 107 99 95 94 95 96 89 82 85 88 89 90 90 86 81 77 71 65 57
43 45 48 47 43 45 59 135 190 187 177 171 159 143 112 95 105 135 146 138 98 80 91 99 102 99 97 98 96 101 95 87 83 83 84 86 85 81 76 71 66 61 55
39 38 43 38 39 46 50 42 56 146 149 146 133 134 143 146 147 136 139 140 119 81 73 80 93 101 102 100 109 113 108 100 94 89 87 86 83 78 73 67 61 57 52
36 32 40 36 39 44 49 54 54 62 104 118 120 119 113 122 133 129 128 126 110 91 78 70 81 103 111 99 104 114 111 105 102 99 94 90 86 79 73 65 59 54 48
36 35 43 44 47 52 55 60 63 65 82 92 94 101 97 93 111 126 132 135 122 96 82 100 95 127 111 109 101 95 97 96 98 107 114 110 100 92 82 71 62 56 48
44 41 47 54 53 53 54 60 65 64 70 74 80 84 84 79 89 93 115 132 135 138 134 151 150 143 127 117 118 104 102 101 117 140 166 175 161 146 125 96 76 60 46
46 47 47 51 56 56 58 63 66 67 71 64 67 73 71 72 79 87 106 101 107 127 131 141 140 123 117 117 122 115 135 272 275 249 222 207 202 198 190 180 165 55 30
48 49 50 53 57 57 57 63 63 66 71 67 66 73 70 68 78 79 85 90 91 107 118 107 85 90 92 92 75 69 84 7 294 276 245 220 210 206 205 207 212 245 318
50 51 53 56 57 58 59 65 67 63 66 65 62 68 67 73 71 72 82 87 89 92 121 119 95 75 72 77 77 67 46 35 322 300 265 218 202 204 209 217 221 231 254
53 51 55 57 56 54 58 62 68 67 66 64 62 66 65 74 73 73 81 88 89 91 97 112 103 78 69 60 66 50 38 11 356 14 16 345 250 229 226 234 233 235 245
54 52 54 54 54 55 57 63 68 69 67 65 63 64 64 70 75 78 81 86 95 95 97 102 101 84 69 52 72 57 32 11 1 8 10 10 0 289 260 260 252 246 247
54 53 55 52 49 53 56 67 70 73 72 69 62 58 61 68 69 72 84 88 96 99 102 103 99 92 81 76 76 43 40 348 354 6 339 352 347 325 303 287 269 257 254
50 52 51 52 50 51 56 66 75 72 70 71 66 57 58 56 61 66 76 81 91 107 112 108 110 121 130 132 114 81 63 26 341 7 340 324 341 303 296 285 277 271 264
54 53 49 53 52 47 58 67 74 76 69 65 63 60 60 53 56 65 67 66 65 75 99 124 128 144 157 172 155 136 148 200 262 324 329 302 318 295 294 293 294 279 272
56 54 48 49 52 46 61 72 77 73 69 62 60 64 66 53 54 69 73 66 58 52 60 89 132 165 189 186 182 163 156 266 283 265 238 280 306 295 303 300 296 291 286
60 54 51 51 53 41 56 75 80 77 71 59 53 55 63 61 54 68 74 70 56 37 43 59 108 164 207 200 171 150 140 56 345 313 208 261 297 303 295 291 296 303 299
70 67 59 50 52 44 48 70 80 82 75 62 48 43 50 57 56 64 72 72 57 22 14 31 41 40 49 110 175 187 180 178 250 280 209 227 276 307 302 288 294 305 303